This is the latest recevied weather packets stored in our database for station/object R1CBW-13. If no packets are shown the sender has not sent any weather packets the latest 1 day(s).
| Time | Temp. | Humidity | Pressure | Rain* | Wind** | Luminosity | Snow |
|---|---|---|---|---|---|---|---|
| 1778055150 | 8.33° C | 42% | 1010.4 hPa | 0 mm | - | - | - |
| 1778055090 | 8.89° C | 42% | 1010.6 hPa | 0 mm | - | - | - |
| 1778055030 | 8.33° C | 44% | 1010.4 hPa | 0 mm | - | - | - |
| 1778054970 | 8.89° C | 43% | 1010.4 hPa | 0 mm | - | - | - |
| 1778054910 | 8.33° C | 44% | 1010.4 hPa | 0 mm | - | - | - |
| 1778054850 | 8.89° C | 44% | 1010.4 hPa | 0 mm | - | - | - |
| 1778054790 | 8.89° C | 43% | 1010.3 hPa | 0 mm | - | - | - |
| 1778054730 | 8.89° C | 43% | 1010.3 hPa | 0 mm | - | - | - |
| 1778054670 | 8.33° C | 44% | 1010.3 hPa | 0 mm | - | - | - |
| 1778054610 | 8.33° C | 45% | 1010.3 hPa | 0 mm | - | - | - |
| 1778054550 | 7.78° C | 46% | 1010.4 hPa | 0 mm | - | - | - |
| 1778054490 | 7.22° C | 46% | 1010.4 hPa | 0 mm | - | - | - |
| 1778054430 | 7.78° C | 46% | 1010.6 hPa | 0 mm | - | - | - |
| 1778054370 | 8.33° C | 45% | 1010.5 hPa | 0 mm | - | - | - |
| 1778054310 | 8.89° C | 45% | 1010.3 hPa | 0 mm | - | - | - |
| 1778054250 | 8.33° C | 46% | 1010.3 hPa | 0 mm | - | - | - |
| 1778054190 | 8.33° C | 47% | 1010.4 hPa | 0 mm | - | - | - |
| 1778054130 | 8.33° C | 46% | 1010.3 hPa | 0 mm | - | - | - |
| 1778054070 | 8.33° C | 47% | 1010.2 hPa | 0 mm | - | - | - |
| 1778054010 | 7.78° C | 47% | 1010.3 hPa | 0 mm | - | - | - |
| 1778053590 | 8.33° C | 47% | 1010.1 hPa | 0 mm | - | - | - |
| 1778053109 | 7.22° C | 49% | 1010.1 hPa | 0 mm | - | - | - |
| 1778052749 | 7.78° C | 49% | 1010 hPa | 0 mm | - | - | - |
| 1778052689 | 7.78° C | 48% | 1010.1 hPa | 0 mm | - | - | - |
| 1778052509 | 7.78° C | 48% | 1010 hPa | 0 mm | - | - | - |
* Rain latest hour (hover to see other rain measurements)
** Current wind speed in m/s (hover to see current wind gust speed)